User: anonymous
Location: Nebraska Star Party
(42.6000°N, 100.8833°W)
Time: 02:19:49
(UTC-05:00)
Language:

Iridium 37 - Orbit

View from above orbital plane
View from above orbital plane
View from above satellite
View from above satellite

Ground track
Ground track

The orbit data is extracted from the following two-line orbital elements,

1 24968U 97056D   14202.16319709  .00000030  00000-0  35885-5 0  8852
2 24968 086.3938 042.7806 0002152 102.0327 258.1110 14.34218096880316
Epoch (UTC): 21 July 2014 03:55:00
Eccentricity: 0.0002152
inclination: 86.3938°
perigee height: 776 km
apogee height: 779 km
right ascension of ascending node: 42.7806°
argument of perigee: 102.0327°
revolutions per day: 14.34218096
mean anomaly at epoch: 258.1110°
orbit number at epoch: 88031

The dashed part of the orbit path shows where the satellite is in the earth's shadow,  

DLR